SCP
0 0 0 0 0 0 0 0 0 0 0 0 0 0 0 0 0 0 0 0 0 0 0 0 0 0 0 0 0 0 0 0 0 0 0 -0 -0 -0 -0 0 0 0 0 0
0 0 0 0 0 0 0 0 0 0 0 0 0 0 0 0 0 0 0 0 0 0 0 0 0 0 0 0 0 0 0 0 0 0 0 0 -0 -0 -0 0 0 0 0 0
0 0 0 0 0 0 0 0 0 0 0 0 0 0 0 0 0 0 0 0 0 0 0 0 0 0 0 0 0 0 0 0 0 0 0 0 0 0 -0 0 0 0 0 0
0 0 0 0 0 0 0 0 0 0 0 0 0 0 0 0 0 0 0 0 0 0 0 0 0 0 0 0 0 0 0 0 0 0 0 0 0 0 0 0 0 0 0 0
0 0 0 0 0 0 0 0 0 0 0 0 0 0 0 0 0 0 0 0 0 0 0 0 0 0 0 0 0 0 0 0 0 0 0 0 0 0 0 0 0 0 0 0
0 0 0 0 0 0 0 0 0 0 0 0 0 0 0 0 0 0 0 0 0 0 0 0 0 0 0 0 0 0 0 0 0 0 0 0 0 0 0 0 0 0 0 0
0 0 0 0 0 0 0 0 0 0 0 0 0 0 0 0 0 0 0 0 0 0 0 0 0 0 0 0 0 0 0 0 0 0 0 0 0 0 0 0 0 0 0 0
0 0 0 0 0 0 0 0 0 0 0 0 0 0 0 0 0 0 0 0 0 0 0 0 0 0 0 0 0 0 0 0 0 0 0 0 0 0 0 0 0 0 0 0
0 0 0 0 0 0 0 0 0 0 0 0 0 0 0 0 0 0 0 0 0 0 0 0 0 0 0 0 0 0 0 0 0 0 0 0 0 0 0 0 0 0 0 0
0 0 0 0 0 0 0 0 0 0 0 0 0 0 0 0 0 0 0 -0 -0 -0 -0 0 0 0 0 0 0 0 0 0 0 0 0 0 0 0 0 0 0 0 0 0
0 0 0 0 0 0 0 0 0 0 0 0 0 0 0 -0 -0 -0 -0 -0 -0 -0 -0 -0 -0 0 0 0 0 0 0 0 0 0 0 0 0 0 0 0 0 0 0 0
0 0 0 0 0 0 0 0 0 0 0 0 0 0 0 0 0 0 -0 -0 -0 -0 -0 -0 0 0 0 0 0 0 0 0 0 0 0 0 0 0 0 0 0 0 0 0
0 0 0 0 0 0 0 0 0 0 0 0 0 0 0 0 0 0 0 0 0 -0 -0 0 0 0 0 0 0 0 0 0 0 0 0 0 0 0 0 0 0 0 0 0
0 0 0 0 0 0 0 0 0 0 0 0 0 0 0 0 0 0 0 0 0 0 0 0 0 0 0 0 0 0 0 0 0 0 0 0 0 0 0 0 0 0 0 0
0 0 0 0 0 0 0 0 0 0 0 0 0 0 -0 0 0 0 0 0 0 0 0 0 0 0 0 0 0 0 0 0 0 0 0 0 0 0 0 0 0 0 0 0
0 0 0 0 0 0 0 0 0 0 0 0 0 0 0 0 0 0 0 0 0 0 0 0 0 0 0 0 0 0 0 0 0 0 0 0 0 0 0 0 0 0 0 0
0 0 0 0 0 0 0 0 0 0 0 0 0 0 0 0 0 0 0 0 0 0 0 0 0 0 0 0 0 0 0 0 0 0 0 0 0 0 0 0 0 0 0 0
0 0 0 0 0 0 0 0 0 0 0 0 0 0 0 0 0 0 0 0 0 0 0 0 0 0 0 0 0 0 0 0 0 0 0 0 0 0 0 0 0 0 0 0
0 0 0 0 0 0 0 0 0 0 0 0 0 0 0 0 0 0 0 0 0 0 0 0 0 0 0 0 0 0 0 0 0 0 0 0 0 0 0 0 0 0 0 0
-0 -0 0 0 0 0 0 0 0 0 0 0 0 0 0 0 0 0 0 0 0 0 0 0 0 0 0 0 0 0 0 0 0 0 0 0 0 0 0 0 0 0 0 0
0 0 0 0 0 0 0 0 0 0 0 0 0 0 0 0 0 0 0 0 0 0 0 0 0 0 0 0 0 0 0 0 0 0 0 0 0 0 0 0 0 0 0 0
0 0 0 0 0 0 0 0 0 0 0 0 0 0 0 0 0 0 0 0 0 0 0 0 0 0 0 0 0 0 0 0 0 0 0 0 0 0 0 0 0 0 0 0
0 0 0 0 0 0 0 0 0 0 0 0 0 -0 -0 -0 -0 0 0 0 0 0 0 0 0 0 0 0 0 0 0 0 0 0 0 0 0 0 0 0 0 0 0 0
0 0 0 0 0 0 -0 0 0 0 0 0 0 0 -0 -0 -0 0 0 0 0 0 0 0 0 0 0 0 0 0 0 0 -0 0 0 0 0 0 0 0 0 0 0 0
0 0 0 0 -0 -0 -0 -0 0 0 0 0 0 -0 -0 -0 -0 0 0 0 0 0 0 0 0 0 0 0 0 0 -0 -0 0 0 0 0 0 0 0 0 0 0 0 0
-0 0 0 0 -0 0 -0 0 0 0 -0 0 -0 -0 0 -0 -0 0 0 0 0 0 0 0 0 0 0 0 0 -0 -0 -0 -0 0 0 0 0 0 0 0 0 0 0 0
Wind_Speed_500mb
3 10 16 15 11 6 8 6 8 5 7 9 21 22 25 25 25 34 39 48 53 65 65 70 65 60 55 48 41 35 29 17 4 6 16 23 30 35 36 38 40 41 43 42
6 19 15 8 11 10 9 9 11 12 13 12 17 24 21 16 22 37 47 53 61 69 61 71 73 70 66 57 49 43 33 19 8 9 16 23 33 42 44 45 46 48 52 49
11 4 19 13 12 12 12 16 10 15 5 4 9 27 19 18 28 30 44 52 61 79 79 73 80 79 71 64 55 40 29 20 12 11 17 24 33 43 49 51 53 58 61 59
11 4 13 14 10 15 13 25 15 11 9 13 4 13 11 13 20 21 44 47 49 58 62 65 81 83 79 69 51 40 31 25 18 15 21 26 36 47 51 52 53 58 63 63
3 14 15 12 9 18 3 3 13 9 13 6 11 12 8 6 17 26 28 28 31 44 56 68 81 90 82 66 53 40 34 28 22 22 27 33 42 52 56 55 56 61 67 69
13 3 8 7 4 11 22 15 12 8 3 15 21 20 15 12 10 7 8 23 23 27 42 58 67 77 82 63 51 41 37 32 28 28 31 37 46 54 58 58 62 67 69 67
21 22 7 9 8 8 10 15 6 9 11 14 4 12 22 12 10 17 27 32 32 35 39 48 60 76 77 64 47 42 40 38 33 32 34 42 51 59 61 62 65 70 72 65
11 14 18 18 24 17 29 23 11 11 11 5 8 14 5 5 6 13 21 26 17 16 24 44 54 67 71 51 42 42 43 40 37 36 40 48 57 62 64 66 68 73 71 65
9 15 5 11 8 16 12 18 10 7 3 9 15 17 21 19 15 9 11 8 8 13 24 37 50 55 51 44 45 46 46 43 39 41 48 53 61 64 67 69 71 74 71 65
4 13 10 7 11 8 12 21 8 1 11 18 14 13 18 12 15 8 9 12 13 20 31 43 50 51 49 48 50 52 50 43 42 47 52 58 64 66 70 73 73 72 68 64
13 3 5 3 15 28 10 16 5 4 7 17 20 16 13 23 17 18 18 22 28 34 41 47 53 53 54 53 53 52 49 46 47 50 55 62 66 68 72 72 70 65 64 64
12 4 11 23 7 8 7 21 28 12 31 8 15 32 15 17 18 27 30 36 37 40 43 42 46 53 55 56 55 53 50 50 49 55 59 65 67 70 72 69 64 60 63 61
13 6 10 13 15 4 11 4 6 12 7 33 25 34 7 9 13 34 34 42 47 46 43 44 50 58 61 61 60 56 51 48 51 55 61 65 68 70 69 65 60 61 60 63
18 10 19 23 19 24 31 28 26 15 13 35 33 53 38 20 22 24 39 41 46 50 52 49 53 58 62 61 59 53 48 49 51 56 61 65 67 67 66 63 62 62 59 63
9 32 33 43 40 30 37 38 37 37 43 32 44 42 52 31 29 35 44 45 46 52 55 63 62 59 59 60 57 50 46 48 51 56 61 64 65 65 65 65 63 61 60 62
8 24 20 39 32 25 37 42 52 49 48 44 53 52 61 53 38 45 40 39 47 50 60 68 68 61 56 54 49 44 44 48 50 56 62 64 64 63 64 64 62 62 63 63
18 9 13 45 26 28 31 67 50 51 53 44 44 57 49 50 38 43 47 50 54 59 61 63 75 65 54 50 43 40 43 45 48 57 60 61 60 62 63 60 62 63 66 67
43 39 27 39 25 38 44 26 36 44 50 47 50 56 56 56 55 46 56 58 49 57 57 59 61 55 51 43 37 37 39 43 50 57 58 56 60 63 59 59 64 67 69 68
48 41 26 29 29 42 46 35 25 26 35 36 42 48 51 46 45 58 64 59 64 57 61 58 47 45 41 34 33 34 36 42 49 53 54 57 57 57 58 60 64 68 71 72
35 36 28 24 23 30 37 43 65 41 47 51 56 47 47 49 27 40 44 61 70 66 55 42 46 39 31 29 28 31 36 42 45 49 54 54 51 56 58 60 64 66 69 73
22 22 33 31 26 24 40 40 37 37 23 5 13 33 31 26 30 72 52 42 51 49 46 46 36 29 27 25 26 28 35 40 45 51 52 49 49 53 58 62 64 67 70 72
18 16 22 20 26 35 34 21 27 20 30 37 41 32 34 41 54 65 51 45 45 57 51 41 33 30 24 22 23 27 35 41 47 47 48 45 47 50 56 58 64 70 70 69
17 24 19 17 14 14 30 32 47 24 34 38 36 39 35 44 51 54 46 39 48 48 44 36 34 27 20 18 21 29 34 41 42 44 47 48 49 53 52 58 64 68 63 61
25 36 15 11 23 18 49 41 48 60 45 38 37 48 40 50 51 43 31 39 44 42 37 35 29 22 17 13 20 26 34 37 37 41 44 47 50 51 49 53 56 58 57 55
27 21 19 34 35 39 65 61 48 42 35 36 45 44 46 43 51 39 36 41 43 42 37 29 24 20 12 9 16 22 30 31 35 38 40 40 47 50 55 52 55 56 49 46
41 43 26 33 26 38 51 52 45 43 40 52 46 49 49 45 41 41 38 40 43 40 34 29 23 13 5 7 12 21 27 32 33 33 37 41 49 51 53 58 63 57 53 37
Wind_Direction_500mb
56 218 222 216 191 128 129 168 200 207 178 223 232 242 248 222 212 218 219 213 212 213 216 212 207 202 201 202 199 193 191 201 230 348 357 355 353 345 338 331 328 328 328 325
174 239 224 179 172 184 197 216 225 269 233 218 245 251 252 213 221 219 221 221 220 220 213 216 208 204 206 207 202 201 209 219 254 324 338 345 348 344 336 329 328 329 329 327
221 89 143 180 182 187 202 213 212 238 143 227 284 266 240 241 236 231 230 230 227 220 216 214 209 208 208 208 208 208 215 227 250 288 322 332 337 337 335 327 324 327 327 326
245 175 209 177 188 198 234 211 227 207 206 246 299 275 242 238 240 234 240 229 228 223 222 217 213 210 211 210 204 208 218 230 253 285 305 317 326 331 329 321 320 321 321 322
185 171 174 200 243 188 222 122 204 176 210 255 199 259 242 235 241 242 245 257 242 234 229 226 220 216 213 206 204 211 224 235 259 279 297 315 322 323 322 316 316 317 318 320
263 194 212 239 102 203 146 104 73 75 161 250 231 231 250 229 222 204 258 282 271 250 240 228 223 212 209 202 203 216 228 240 256 277 298 310 313 316 316 314 314 318 319 320
231 232 218 192 209 115 200 160 164 211 208 248 148 217 265 255 247 270 297 294 287 269 246 212 200 202 202 200 205 223 234 245 256 277 294 304 308 312 312 313 315 317 319 319
244 249 189 179 209 203 204 213 198 214 215 233 147 236 225 197 217 266 278 289 290 254 214 202 198 188 193 195 214 230 243 251 262 277 292 299 306 309 310 313 313 314 315 313
209 236 257 208 151 186 163 210 246 247 86 253 239 249 272 240 233 253 273 268 237 200 186 184 183 180 186 206 222 236 244 251 263 279 288 298 304 306 307 310 309 312 313 310
37 278 230 247 145 82 217 146 164 164 239 242 225 252 240 228 211 208 210 205 175 166 165 168 175 184 202 216 230 238 245 253 266 278 290 298 302 304 307 307 308 310 310 307
4 220 218 271 213 233 183 217 215 227 239 247 268 256 205 234 226 200 199 191 175 171 173 180 189 202 213 225 236 243 248 257 268 281 292 297 300 303 306 307 308 309 308 308
17 296 249 251 292 353 309 260 221 217 223 238 267 264 180 216 200 196 199 196 194 192 196 202 207 215 225 234 241 244 248 258 272 283 292 295 299 304 305 306 306 308 308 309
354 234 276 242 233 236 242 341 338 306 256 236 235 260 167 229 203 211 209 205 207 211 215 218 225 232 236 239 240 243 250 262 275 285 290 295 302 303 304 305 306 308 306 309
333 252 250 256 277 313 283 284 295 298 276 251 241 260 252 221 218 214 219 222 216 218 223 229 235 239 240 240 241 243 253 266 277 284 289 297 302 301 304 307 307 308 305 307
268 263 266 265 268 264 275 280 275 264 260 261 266 270 271 265 242 236 229 224 226 225 223 228 238 243 241 238 239 243 256 271 278 285 293 300 301 302 305 306 305 305 304 309
262 257 259 261 257 267 276 271 260 262 262 263 265 269 268 279 273 249 236 228 234 238 233 235 244 246 243 237 235 245 263 272 280 290 297 302 302 305 305 304 303 303 306 308
291 266 256 261 264 279 269 247 257 257 257 254 259 263 277 275 263 249 246 241 245 249 248 249 251 248 243 232 235 253 264 273 286 294 300 304 305 308 308 304 305 306 306 305
242 249 254 264 274 255 247 270 258 252 253 255 255 256 266 271 281 265 252 251 251 256 259 261 259 249 227 226 243 256 266 282 293 299 304 305 309 311 311 308 306 308 309 307
221 225 236 241 243 252 272 257 249 246 263 259 256 265 279 296 301 270 253 253 262 252 262 267 256 220 213 231 245 257 275 290 298 303 304 309 312 311 310 310 309 310 310 309
227 226 229 235 239 248 255 258 254 261 269 259 272 270 274 288 270 264 272 258 257 261 255 235 197 196 215 230 246 268 287 298 303 303 308 311 312 313 313 314 313 315 315 310
255 221 228 238 247 261 269 279 271 234 253 271 276 280 279 278 276 280 285 266 251 240 195 183 189 197 209 229 255 279 294 302 302 307 310 314 318 320 318 318 321 318 316 314
253 254 241 240 247 259 246 241 222 257 277 293 294 294 300 303 300 290 270 248 216 186 179 184 187 191 208 239 268 290 301 303 306 311 316 318 320 318 319 323 323 323 323 317
240 223 245 228 249 291 302 298 300 296 296 296 297 301 292 293 298 286 261 209 179 180 179 179 183 191 214 249 284 302 305 308 313 318 324 320 318 320 327 326 325 325 328 325
246 247 233 271 251 251 291 292 279 291 274 276 293 302 300 292 298 281 231 185 176 179 177 177 186 196 213 258 300 310 311 316 319 322 321 321 327 333 335 335 335 335 337 332
254 266 247 256 265 279 271 273 283 295 279 275 293 300 299 306 295 255 213 186 179 176 174 183 192 197 212 287 312 318 321 325 324 327 330 336 344 347 345 343 348 350 346 338
250 248 242 257 268 265 277 281 286 290 279 288 284 302 286 293 286 226 197 188 178 173 176 186 188 198 235 312 325 328 334 339 337 334 343 348 354 355 353 352 356 0 358 353
Wind_Speed_850mb
3 10 16 15 11 6 8 6 8 5 7 9 21 22 25 25 25 34 39 48 53 65 65 70 65 60 55 48 41 35 29 17 4 6 16 23 30 35 36 38 40 41 43 42
6 19 15 8 11 10 9 9 11 12 13 12 17 24 21 16 22 37 47 53 61 69 61 71 73 70 66 57 49 43 33 19 8 9 16 23 33 42 44 45 46 48 52 49
11 4 19 13 12 12 12 16 10 15 5 4 9 27 19 18 28 30 44 52 61 79 79 73 80 79 71 64 55 40 29 20 12 11 17 24 33 43 49 51 53 58 61 59
11 4 13 14 10 15 13 25 15 11 9 13 4 13 11 13 20 21 44 47 49 58 62 65 81 83 79 69 51 40 31 25 18 15 21 26 36 47 51 52 53 58 63 63
3 14 15 12 9 18 3 3 13 9 13 6 11 12 8 6 17 26 28 28 31 44 56 68 81 90 82 66 53 40 34 28 22 22 27 33 42 52 56 55 56 61 67 69
13 3 8 7 4 11 22 15 12 8 3 15 21 20 15 12 10 7 8 23 23 27 42 58 67 77 82 63 51 41 37 32 28 28 31 37 46 54 58 58 62 67 69 67
21 22 7 9 8 8 10 15 6 9 11 14 4 12 22 12 10 17 27 32 32 35 39 48 60 76 77 64 47 42 40 38 33 32 34 42 51 59 61 62 65 70 72 65
11 14 18 18 24 17 29 23 11 11 11 5 8 14 5 5 6 13 21 26 17 16 24 44 54 67 71 51 42 42 43 40 37 36 40 48 57 62 64 66 68 73 71 65
9 15 5 11 8 16 12 18 10 7 3 9 15 17 21 19 15 9 11 8 8 13 24 37 50 55 51 44 45 46 46 43 39 41 48 53 61 64 67 69 71 74 71 65
4 13 10 7 11 8 12 21 8 1 11 18 14 13 18 12 15 8 9 12 13 20 31 43 50 51 49 48 50 52 50 43 42 47 52 58 64 66 70 73 73 72 68 64
13 3 5 3 15 28 10 16 5 4 7 17 20 16 13 23 17 18 18 22 28 34 41 47 53 53 54 53 53 52 49 46 47 50 55 62 66 68 72 72 70 65 64 64
12 4 11 23 7 8 7 21 28 12 31 8 15 32 15 17 18 27 30 36 37 40 43 42 46 53 55 56 55 53 50 50 49 55 59 65 67 70 72 69 64 60 63 61
13 6 10 13 15 4 11 4 6 12 7 33 25 34 7 9 13 34 34 42 47 46 43 44 50 58 61 61 60 56 51 48 51 55 61 65 68 70 69 65 60 61 60 63
18 10 19 23 19 24 31 28 26 15 13 35 33 53 38 20 22 24 39 41 46 50 52 49 53 58 62 61 59 53 48 49 51 56 61 65 67 67 66 63 62 62 59 63
9 32 33 43 40 30 37 38 37 37 43 32 44 42 52 31 29 35 44 45 46 52 55 63 62 59 59 60 57 50 46 48 51 56 61 64 65 65 65 65 63 61 60 62
8 24 20 39 32 25 37 42 52 49 48 44 53 52 61 53 38 45 40 39 47 50 60 68 68 61 56 54 49 44 44 48 50 56 62 64 64 63 64 64 62 62 63 63
18 9 13 45 26 28 31 67 50 51 53 44 44 57 49 50 38 43 47 50 54 59 61 63 75 65 54 50 43 40 43 45 48 57 60 61 60 62 63 60 62 63 66 67
43 39 27 39 25 38 44 26 36 44 50 47 50 56 56 56 55 46 56 58 49 57 57 59 61 55 51 43 37 37 39 43 50 57 58 56 60 63 59 59 64 67 69 68
48 41 26 29 29 42 46 35 25 26 35 36 42 48 51 46 45 58 64 59 64 57 61 58 47 45 41 34 33 34 36 42 49 53 54 57 57 57 58 60 64 68 71 72
35 36 28 24 23 30 37 43 65 41 47 51 56 47 47 49 27 40 44 61 70 66 55 42 46 39 31 29 28 31 36 42 45 49 54 54 51 56 58 60 64 66 69 73
22 22 33 31 26 24 40 40 37 37 23 5 13 33 31 26 30 72 52 42 51 49 46 46 36 29 27 25 26 28 35 40 45 51 52 49 49 53 58 62 64 67 70 72
18 16 22 20 26 35 34 21 27 20 30 37 41 32 34 41 54 65 51 45 45 57 51 41 33 30 24 22 23 27 35 41 47 47 48 45 47 50 56 58 64 70 70 69
17 24 19 17 14 14 30 32 47 24 34 38 36 39 35 44 51 54 46 39 48 48 44 36 34 27 20 18 21 29 34 41 42 44 47 48 49 53 52 58 64 68 63 61
25 36 15 11 23 18 49 41 48 60 45 38 37 48 40 50 51 43 31 39 44 42 37 35 29 22 17 13 20 26 34 37 37 41 44 47 50 51 49 53 56 58 57 55
27 21 19 34 35 39 65 61 48 42 35 36 45 44 46 43 51 39 36 41 43 42 37 29 24 20 12 9 16 22 30 31 35 38 40 40 47 50 55 52 55 56 49 46
41 43 26 33 26 38 51 52 45 43 40 52 46 49 49 45 41 41 38 40 43 40 34 29 23 13 5 7 12 21 27 32 33 33 37 41 49 51 53 58 63 57 53 37
Wind_Direction_850mb
56 218 222 216 191 128 129 168 200 207 178 223 232 242 248 222 212 218 219 213 212 213 216 212 207 202 201 202 199 193 191 201 230 348 357 355 353 345 338 331 328 328 328 325
174 239 224 179 172 184 197 216 225 269 233 218 245 251 252 213 221 219 221 221 220 220 213 216 208 204 206 207 202 201 209 219 254 324 338 345 348 344 336 329 328 329 329 327
221 89 143 180 182 187 202 213 212 238 143 227 284 266 240 241 236 231 230 230 227 220 216 214 209 208 208 208 208 208 215 227 250 288 322 332 337 337 335 327 324 327 327 326
245 175 209 177 188 198 234 211 227 207 206 246 299 275 242 238 240 234 240 229 228 223 222 217 213 210 211 210 204 208 218 230 253 285 305 317 326 331 329 321 320 321 321 322
185 171 174 200 243 188 222 122 204 176 210 255 199 259 242 235 241 242 245 257 242 234 229 226 220 216 213 206 204 211 224 235 259 279 297 315 322 323 322 316 316 317 318 320
263 194 212 239 102 203 146 104 73 75 161 250 231 231 250 229 222 204 258 282 271 250 240 228 223 212 209 202 203 216 228 240 256 277 298 310 313 316 316 314 314 318 319 320
231 232 218 192 209 115 200 160 164 211 208 248 148 217 265 255 247 270 297 294 287 269 246 212 200 202 202 200 205 223 234 245 256 277 294 304 308 312 312 313 315 317 319 319
244 249 189 179 209 203 204 213 198 214 215 233 147 236 225 197 217 266 278 289 290 254 214 202 198 188 193 195 214 230 243 251 262 277 292 299 306 309 310 313 313 314 315 313
209 236 257 208 151 186 163 210 246 247 86 253 239 249 272 240 233 253 273 268 237 200 186 184 183 180 186 206 222 236 244 251 263 279 288 298 304 306 307 310 309 312 313 310
37 278 230 247 145 82 217 146 164 164 239 242 225 252 240 228 211 208 210 205 175 166 165 168 175 184 202 216 230 238 245 253 266 278 290 298 302 304 307 307 308 310 310 307
4 220 218 271 213 233 183 217 215 227 239 247 268 256 205 234 226 200 199 191 175 171 173 180 189 202 213 225 236 243 248 257 268 281 292 297 300 303 306 307 308 309 308 308
17 296 249 251 292 353 309 260 221 217 223 238 267 264 180 216 200 196 199 196 194 192 196 202 207 215 225 234 241 244 248 258 272 283 292 295 299 304 305 306 306 308 308 309
354 234 276 242 233 236 242 341 338 306 256 236 235 260 167 229 203 211 209 205 207 211 215 218 225 232 236 239 240 243 250 262 275 285 290 295 302 303 304 305 306 308 306 309
333 252 250 256 277 313 283 284 295 298 276 251 241 260 252 221 218 214 219 222 216 218 223 229 235 239 240 240 241 243 253 266 277 284 289 297 302 301 304 307 307 308 305 307
268 263 266 265 268 264 275 280 275 264 260 261 266 270 271 265 242 236 229 224 226 225 223 228 238 243 241 238 239 243 256 271 278 285 293 300 301 302 305 306 305 305 304 309
262 257 259 261 257 267 276 271 260 262 262 263 265 269 268 279 273 249 236 228 234 238 233 235 244 246 243 237 235 245 263 272 280 290 297 302 302 305 305 304 303 303 306 308
291 266 256 261 264 279 269 247 257 257 257 254 259 263 277 275 263 249 246 241 245 249 248 249 251 248 243 232 235 253 264 273 286 294 300 304 305 308 308 304 305 306 306 305
242 249 254 264 274 255 247 270 258 252 253 255 255 256 266 271 281 265 252 251 251 256 259 261 259 249 227 226 243 256 266 282 293 299 304 305 309 311 311 308 306 308 309 307
221 225 236 241 243 252 272 257 249 246 263 259 256 265 279 296 301 270 253 253 262 252 262 267 256 220 213 231 245 257 275 290 298 303 304 309 312 311 310 310 309 310 310 309
227 226 229 235 239 248 255 258 254 261 269 259 272 270 274 288 270 264 272 258 257 261 255 235 197 196 215 230 246 268 287 298 303 303 308 311 312 313 313 314 313 315 315 310
255 221 228 238 247 261 269 279 271 234 253 271 276 280 279 278 276 280 285 266 251 240 195 183 189 197 209 229 255 279 294 302 302 307 310 314 318 320 318 318 321 318 316 314
253 254 241 240 247 259 246 241 222 257 277 293 294 294 300 303 300 290 270 248 216 186 179 184 187 191 208 239 268 290 301 303 306 311 316 318 320 318 319 323 323 323 323 317
240 223 245 228 249 291 302 298 300 296 296 296 297 301 292 293 298 286 261 209 179 180 179 179 183 191 214 249 284 302 305 308 313 318 324 320 318 320 327 326 325 325 328 325
246 247 233 271 251 251 291 292 279 291 274 276 293 302 300 292 298 281 231 185 176 179 177 177 186 196 213 258 300 310 311 316 319 322 321 321 327 333 335 335 335 335 337 332
254 266 247 256 265 279 271 273 283 295 279 275 293 300 299 306 295 255 213 186 179 176 174 183 192 197 212 287 312 318 321 325 324 327 330 336 344 347 345 343 348 350 346 338
250 248 242 257 268 265 277 281 286 290 279 288 284 302 286 293 286 226 197 188 178 173 176 186 188 198 235 312 325 328 334 339 337 334 343 348 354 355 353 352 356 0 358 353